Погода в Кашуэйру-ди-Итапемирин

Бразилия     20°50′54″S   41°07′13″W
темп.,
°C
ветер,
м/с
пор.,
м/с
влажн.,
%
обл.,
%
осадки,
мм/ч
давл.,
гПа
погр.,
м
27 февраля, сб
сб2700:00+20ссв2294100 0.0 101539
03:00+19с228999 0.0 101427
06:00+18с227996 0.0 101527
09:00+25ююз116482 0.0 1016473
12:00+25ююв127290 0.0 1016775
15:00+25в128995 2.8 1014507
18:00+22всв2396100 4.8 1014136
21:00+20св2396100 6.3 101578
28 февраля, вс
вс2800:00+19ссв2392100 0.0 101556
03:00+18ссв228999 0.0 101454
06:00+18с229191 0.0 101535
09:00+24вюв147391 0.0 1016791
12:00+27вюв2463100 0.0 10151192
15:00+25вюв357896 1.0 1013777
18:00+22в2493100 0.6 1013185
21:00+20св1295100 0.7 101543
1 марта, пн
пн100:00+20ссв1293100 0.1 101442
03:00+19ссв1291100 0.1 101335
06:00+18с129095 0.0 101427
09:00+26ююв026986 0.0 1015708
12:00+28ююв236131 0.0 10151311
15:00+25юв248266 1.3 1013741
18:00+22в129460 0.4 1013109
21:00+20св239364 0.5 101571
2 марта, вт
вт200:00+19ссв1286100 0.0 101535
03:00+19с1288100 0.0 101434
06:00+18с1289100 0.0 101528
09:00+25юз1168100 0.0 1017632
12:00+27ю2267100 0.1 1016986
15:00+25вюв2384100 1.9 1014458
18:00+22всв239574 3.0 101486
21:00+20св229654 3.1 101656
3 марта, ср
ср300:00+20с229524 0.0 101631
03:00+18с229112 0.0 101530
06:00+18с22870 0.0 101731
09:00+26з12654 0.0 1018496
12:00+29ююз12570 0.0 10171250
15:00+27вюв23709 0.1 1014728
18:00+23всв22941 0.9 101458
21:00+21ссв22966 1.0 101645